Tracking 19575 objects as of 18-Feb-2019
HD Live streaming from Space Station
objects crossing your sky now

IRIDIUM 46

Track IRIDIUM 46 now!
10-day predictions
IRIDIUM 46 is classified as:


NORAD ID: 24905
Int'l Code: 1997-043C
Perigee: 254.7 km
Apogee: 460.2 km
Inclination: 86.4 °
Period: 91.5 minutes
Semi major axis: 6728 km
RCS: 3.9325 m2 (large)
Launch date: August 21, 1997
Source: United States (US)
Launch site: AIR FORCE WESTERN TEST RANGE (AFWTR)
aabbcc
Your satellite tracking list
Your tracking list is empty




NASA's NSSDC Master Catalog

Two Line Element Set (TLE):
1 24905U 97043C   19049.19627599  .00152292  54964-5  53467-3 0  9996
2 24905  86.3746 330.0350 0152717  15.9647 344.6357 15.73001633129479
Source of the keplerian elements: AFSPC